Location: Camp at the Woods
(43.2055°N, 93.0905°W)
Time: 07:10:53
(UTC+00:00)

USA 267 - Pass Details

Date: 05 December 2023
Orbit: 1102 x 1105 km, 123.0° (Epoch: 27 February)

Event Time Altitude Azimuth Distance (km) Brightness Sun altitude
Rises 12:45:27 0° 122° (ESE) 3,909 8.4 -7.8°
Reaches altitude 10° 12:47:55 10° 121° (ESE) 2,954 7.3 -7.4°
Maximum altitude 12:54:25 76° 37° (NE) 1,138 3.4 -6.3°
Drops below altitude 10° 13:00:58 10° 313° (NW) 2,967 4.9 -5.3°
Enters shadow 13:02:19 - 312° (NW) 3,485 5.3 -5.0°
